World > North America > United States > California

Pioneertown, California Regional Weather

Lat: 34.16N, Lon: 116.5W
Wx Zone: CAZ060Web Search

Helpful Tip: Type the letters wx in the search engine next time you need to find us.

Feedback
Pioneertown Weather Map
UTC Time: 11/24/2020, 03:07
Your Time:

Pioneertown, CA Regional Weather

Expires:202011240400;;299983
ASUS46 KLOX 240304
RWRCA 

SOUTHERN CALIFORNIA WEATHER ROUNDUP
NATIONAL WEATHER SERVICE OXNARD CALIFORNIA
700 PM PST MON NOV 23 2020

NOTE: "FAIR" INDICATES FEW OR NO CLOUDS BELOW 12,000 FEET WITH NO 
SIGNIFICANT WEATHER AND/OR OBSTRUCTIONS TO VISIBILITY.

  -  STATIONS PRECEEDED BY AN ASTERISK (*) ARE NOT NWS OR FAA 
     STATIONS AND ARE NOT SUBJECT TO NWS AND FAA QUALITY CONTROL.


CAZ028-029-059-060-099-240400-
ANTELOPE VALLEY AND SURROUNDING AREAS

  
CITY           SKY/WX    TMP DP  RH WIND       PRES   REMARKS
LANCASTER      CLEAR     50  34  54 W14       29.95R                  
PALMDALE       CLEAR     51  30  44 W17       29.95R                  

CITY           SKY/WX    TMP DP  RH WIND       PRES   REMARKS
29 PALMS       CLEAR     60  24  25 W16       29.93R                  
BARSTOW/DAGGET CLEAR     57  26  30 W15       29.89R                  
BISHOP         CLEAR     51  21  30 N21       29.95R                  
CHINA LAKE     PTCLDY    55  27  33 S8        29.87R                  
EDWARDS AFB    CLEAR     51  34  52 SW13      29.91R                  
MOJAVE         PTCLDY    50  45  81 W23G30    29.91R                  
NEEDLES        CLEAR     64  19  17 W10       29.78R                  

$$


SKY/WX - Weather  TMP - Temperature  DP - Dew Point  RH - Relative Humidity
WIND - Wind Direction/Speed PRES - Barometric Pressure VSB - Visibility
WCI - Wind Chill Index E13G22 Wind - East Wind 13 mph/Gusts of 22 mph